This is the latest recevied weather packets stored in our database for station/object EW2905. If no packets are shown the sender has not sent any weather packets the latest 10 day(s).
| Time | Temp. | Humidity | Pressure | Rain* | Wind** | Luminosity | Snow |
|---|---|---|---|---|---|---|---|
| 1777718195 | 21.11° C | 29% | 1024.5 hPa | 0 mm | - | - | - |
| 1777718015 | 21.67° C | 29% | 1024.5 hPa | 0 mm | - | - | - |
| 1777717835 | 21.67° C | 29% | 1024.5 hPa | 0 mm | - | - | - |
| 1777711536 | 20° C | 31% | 1025 hPa | 0 mm | - | - | - |
| 1777699656 | 4.44° C | 84% | 1025.8 hPa | 0 mm | - | - | - |
| 1777688676 | 16.11° C | 26% | 1025.8 hPa | 0 mm | - | - | - |
| 1777611635 | 16.11° C | 26% | 1023.8 hPa | 0 mm | - | - | - |
| 1777605875 | 16.11° C | 26% | 1023.6 hPa | 0 mm | - | - | - |
| 1777599215 | 16.11° C | 26% | 1024 hPa | 0 mm | - | - | - |
| 1777593635 | 16.11° C | 26% | 1023.7 hPa | 0 mm | - | - | - |
| 1777571856 | 16.11° C | 26% | 1020.3 hPa | 0 mm | - | - | - |
| 1777560697 | 16.11° C | 26% | 1020.1 hPa | 0 mm | - | - | - |
| 1777557094 | 16.11° C | 26% | 1020.9 hPa | 0 mm | - | - | - |
| 1777556554 | 16.11° C | 26% | 1020.9 hPa | 0 mm | - | - | - |
| 1777556195 | 16.11° C | 26% | 1020.9 hPa | 0 mm | - | - | - |
| 1777555835 | 16.67° C | 24% | 1020.9 hPa | 0 mm | - | - | - |
| 1777555654 | 16.67° C | 24% | 1020.9 hPa | 0 mm | - | - | - |
| 1777555475 | 16.67° C | 24% | 1020.9 hPa | 0 mm | - | - | - |
| 1777555295 | 16.67° C | 28% | 1020.9 hPa | 0 mm | - | - | - |
| 1777555115 | 16.67° C | 28% | 1020.9 hPa | 0 mm | - | - | - |
| 1777554575 | 16.67° C | 28% | 1020.9 hPa | 0 mm | - | - | - |
| 1777554395 | 16.67° C | 28% | 1020.9 hPa | 0 mm | - | - | - |
| 1777553855 | 16.67° C | 28% | 1020.9 hPa | 0 mm | - | - | - |
| 1777553135 | 16.67° C | 29% | 1021.1 hPa | 0 mm | - | - | - |
| 1777552415 | 16.67° C | 30% | 1021.1 hPa | 0 mm | - | - | - |
* Rain latest hour (hover to see other rain measurements)
** Current wind speed in m/s (hover to see current wind gust speed)